星链-31423 (STARLINK-31423 )

导读

STARLINK-31423是美国SpaceX星链互联网卫星星座的一员,于2024年3月16日发射,旨在为全球提供低延迟、高速率的宽带互联网服务。作为星链批量发射组网的卫星之一,它依托低轨轨道部署,增强星座覆盖能力,服务包括偏远地区、移动载体等多场景网络接入需求,推进星链全球组网进程。

基本信息
目录编号:
59242
目录名称:
STARLINK-31423
国际标识:
2024-049M
轨道中心:
EARTH
卫星名称:
星链-31423
卫星全名:
星链-31423 (STARLINK-31423 )
卫星状态:
在轨 (已飞行909 天)
发射日期:
2024-03-16 UTC
国别 :
美国 (US)
星等 :
--
该卫星已列入 空间交会检测服务 Space Conjunction Data Service (SCDS) ,当前飞行风险评估等级: 无高风险
轨道信息
数据来源 国际轨道数据 AOE轨道数据
星历时间 2026-09-11T11:05:46+0800
12小时前
查看轨道信息
2026-09-10T23:00:00+0800
1天前
查看轨道信息
半长轴 6861.156km 6861.212km
偏心率 0.0000784 0.0000754
轨道倾角 43.000° 42.999°
近地点辐角 283.445° 292.519°
升交点赤经 176.526° 179.378°
平近点角 76.632° 172.618°
近地点 482.481km 482.557km
远地点 483.557km 483.593km
周期 94.266分钟 94.267分钟
每日圈数 15.275902 15.275715
详细信息
固有亮度:
5
最大亮度:
0.3
卫星平台:
Starlink v2.0 mini
覆盖范围:
全球
运营商:
太空探索技术公司
运营商所在国:
美国
制造商(研发单位):
太空探索技术公司
制造商所在国:
美国
使用方式:
暂无
卫星简介
星链(Starlink)计划是由太空探索技术公司(SpaceX)提出的一个巨型低轨卫星互联网星座项目,计划在2019年至2024年间在太空搭建由约1.2万颗卫星组成的“星链”网络,其中1584颗将部署在地球上空550千米处的近地轨道,并从2020年开始工作。该卫星仍在工作。
2D轨道图
3D轨道图
轨道高度分析图
轨道倾角分析图
轨道综合分析图
查看轨道综合分析图
交会数据列表
事件ID 空间交会对象 最接近时刻(TCA) 交会距离 交会风险概率(CRP) 交会风险指数(CRI) 操作
CDM_260912-151705-924206-401721
2026-09-12T
15:17:18+0000
0.867 km
远距离
3.323461E-5 中风险 0.65
CDM_260913-094805-924206-791021
2026-09-13T
09:48:39+0000
1.609 km
极远距离
3.572933E-6 低风险 0.46
CDM_260912-165105-924206-401721
2026-09-12T
16:51:27+0000
1.716 km
极远距离
3.381141E-6 低风险 0.46
CDM_260912-035705-378105-924221
2026-09-12T
03:57:51+0000
1.285 km
极远距离
3.094873E-6 低风险 0.45
CDM_260912-220505-717305-924222
OBJECT H (57173)
2026-09-12T
22:05:00+0000
2.254 km
极远距离
2.089823E-6 低风险 0.41
CDM_260912-111305-924206-961021
2026-09-12T
11:13:22+0000
2.565 km
极远距离
1.422382E-6 低风险 0.38
CDM_260913-081405-924206-791021
2026-09-13T
08:14:30+0000
2.400 km
极远距离
1.320382E-6 低风险 0.37
CDM_260913-113305-924206-961021
2026-09-13T
11:33:01+0000
2.948 km
极远距离
1.165704E-6 低风险 0.36
CDM_260912-044405-378105-924221
2026-09-12T
04:44:55+0000
2.432 km
极远距离
6.212726E-7 极低风险 0.31
与全量物体交会距离演化趋势
与全量物体交会风险概率演化趋势